Home > Weather > Hampton > Past weeks

Flag for USA Past Weather in Hampton, Virginia, USA — Yesterday and Last 2 Weeks

Now
76 °F

Passing clouds.


Feels Like: 75 °F
Forecast: 68 / 75 °F
Wind: 7 mph from Southeast

Location: Langley Air Force Base

Current Time: May 29, 2016 at 7:13:36 PM

Latest Report: May 29, 2016 at 5:58 PM


Visibility: 9 mi

Pressure: 30.06 "Hg

Humidity: 94%

Dew Point: 74 °F

Location of HamptonLocation

Past Weather in Hampton — Graph

°F

Hampton Temperature Yesterday

Maximum temperature yesterday: 82 °F (at 12:58 PM)
Minimum temperature yesterday: 64 °F (at 5:58 AM)
Average temperature yesterday: 74 °F

High & Low Weather Summary for the Past Weeks

 TemperatureHumidityPressure
High89 °F (May 26, 4:58 PM)100% (May 17, 1:03 PM)30.29 "Hg (May 17, 1:03 PM)
Low43 °F (May 16, 5:58 AM)33% (May 16, 4:58 PM)29.71 "Hg (May 14, 4:58 PM)
Average65 °F75%30.07 "Hg
* Reported May 14 4:58 PM — May 29 4:58 PM, Hampton, Weather by CustomWeather, © 2016

Note: Actual official high and low records may vary slightly from our data, if they occured in-between our weather recording intervals... More about our weather records

Advertising

Hampton Weather History for the Previous 24 Hours

Scroll right to see more
 ConditionsComfort  
Time TempWeatherWind HumidityBarometerVisibility
4:58 PM
Sun, May 29
75 °FLight rain. Fog.7 mph94%30.07 "Hg5 mi
4:04 PM75 °FFog.7 mph94%30.07 "Hg1 mi
2:58 PM76 °FLight rain. Fog.5 mph92%30.11 "Hg4 mi
2:45 PM77 °FScattered clouds.5 mph89%30.09 "Hg7 mi
1:58 PM77 °FPartly sunny.5 mph91%30.11 "Hg8 mi
12:58 PM74 °FLight rain. Fog.6 mph94%30.13 "Hg6 mi
11:58 AM77 °FBroken clouds.7 mph85%30.14 "Hg9 mi
10:58 AM78 °FScattered clouds.8 mph83%30.14 "Hg10 mi
9:58 AM78 °FBroken clouds.7 mph83%30.15 "Hg9 mi
9:03 AM77 °FScattered clouds.5 mph83%30.14 "Hg9 mi
8:58 AM76 °FPartly sunny.5 mph88%30.16 "Hg9 mi
7:58 AM72 °FFog.5 mph95%30.15 "Hg2 mi
6:58 AM70 °FFog.5 mph99%30.15 "Hg6 mi
6:03 AM70 °FFog.5 mph100%30.13 "Hg5 mi
5:58 AM69 °FFog.6 mph98%30.15 "Hg6 mi
4:58 AM69 °FPassing clouds.5 mph97%30.14 "Hg9 mi
3:58 AM70 °FClear.3 mph97%30.14 "Hg10 mi
2:58 AM70 °FPassing clouds.3 mph95%30.14 "Hg10 mi
1:58 AM69 °FClear.5 mph92%30.16 "Hg10 mi
12:58 AM69 °FClear.5 mph89%30.18 "Hg10 mi
11:58 PM
Sat, May 28
70 °FClear.5 mph87%30.17 "Hg10 mi
10:58 PM71 °FClear.5 mph83%30.18 "Hg10 mi
9:58 PM72 °FClear.6 mph77%30.18 "Hg10 mi
8:58 PM74 °FSunny.7 mph66%30.18 "Hg10 mi
7:58 PM76 °FSunny.10 mph62%30.17 "Hg10 mi
Weather by CustomWeather, © 2016

See weather overviewHow to use our weather pages